Findlay, OH

10:49 AM EDT on September 19, 2017 (GMT -0400)
Findlay

Weather History for KFDY - October, 2011

Change the Weather History Date:

Tuesday, October 11, 2011

  Actual Average Record
Temperature  
Mean Temperature 65 °F -  
Max Temperature 77 °F 61 °F 84 °F (2008)
Min Temperature 53 °F 42 °F 24 °F (1964)
Growing Degree Days 15 (Base 50)    
Moisture  
Dew Point 49 °F    
Average Humidity 63    
Maximum Humidity 86    
Minimum Humidity 32    
Precipitation  
Precipitation 0.00 in - - ()
Sea Level Pressure  
Sea Level Pressure 30.04 in    
Wind  
Wind Speed 5 mph (SE)    
Max Wind Speed 14 mph    
Max Gust Speed 18 mph    
Visibility 10 miles    
Events      
Averages and records for this station are not official NWS values.
T = Trace of Precipitation, MM = Missing Value Source: NWS Daily Summary

Daily Weather History Graph

Daily Weather History Graph

Search for Another Location

Airport or City:

Trip Planner

Search our weather history database for the weather conditions in past years. The results will help you decide how hot, cold, wet, or windy it might be!

Date:

Astronomy

Oct. 11, 2011 Rise Set
Actual Time 7:41 AM EDT 7:00 PM EDT
Civil Twilight 7:13 AM EDT 7:28 PM EDT
Nautical Twilight 6:42 AM EDT 8:00 PM EDT
Astronomical Twilight 6:10 AM EDT 8:31 PM EDT
Moon 6:31 PM EDT (10/11) 7:18 AM EDT (10/11)
Length of Visible Light 12h 14m
Length of Day
11h 19m
Full, 100% of the Moon is Illuminated
Oct 11
Full
Oct 11
Full
Oct 19
Last Quarter
Oct 26
New
Nov 2
First Quarter

Hourly Weather History & Observations

Time (EDT) Temp. Dew Point Humidity Pressure Visibility Wind Dir Wind Speed Gust Speed Precip Events Conditions
12:53 AM 57.0 °F 48.9 °F 74% 30.11 in 10.0 mi ESE 4.6 mph - N/A   Clear
1:53 AM 53.1 °F 48.0 °F 83% 30.10 in 10.0 mi Calm Calm - N/A   Clear
2:53 AM 54.0 °F 48.0 °F 80% 30.09 in 10.0 mi ESE 3.5 mph - N/A   Clear
3:53 AM 55.0 °F 48.9 °F 80% 30.08 in 10.0 mi Calm Calm - N/A   Clear
4:53 AM 54.0 °F 48.9 °F 83% 30.08 in 10.0 mi ESE 3.5 mph - N/A   Clear
6:53 AM 54.0 °F 48.9 °F 83% 30.09 in 10.0 mi Calm Calm - N/A   Clear
7:53 AM 53.1 °F 48.9 °F 86% 30.09 in 9.0 mi SE 3.5 mph - N/A   Clear
8:53 AM 57.0 °F 51.1 °F 81% 30.10 in 10.0 mi SE 6.9 mph - N/A   Clear
10:53 AM 64.0 °F 52.0 °F 65% 30.09 in 10.0 mi SSE 5.8 mph - N/A   Clear
12:53 PM 73.9 °F 51.1 °F 45% 30.06 in 10.0 mi South 8.1 mph - N/A   Clear
1:53 PM 77.0 °F 48.0 °F 36% 30.04 in 10.0 mi SE 12.7 mph - N/A   Clear
2:53 PM 75.9 °F 44.1 °F 32% 30.01 in 10.0 mi SE 13.8 mph 18.4 mph N/A   Clear
4:53 PM 73.9 °F 46.9 °F 38% 30.00 in 10.0 mi South 9.2 mph - N/A   Clear
5:53 PM 73.9 °F 48.0 °F 40% 29.99 in 10.0 mi ESE 4.6 mph - N/A   Clear
6:53 PM 71.1 °F 48.0 °F 44% 29.98 in 10.0 mi ESE 4.6 mph - N/A   Clear
7:53 PM 64.9 °F 50.0 °F 58% 29.98 in 10.0 mi East 3.5 mph - N/A   Clear
8:53 PM 64.0 °F 48.9 °F 58% 29.98 in 10.0 mi East 4.6 mph - N/A   Clear
9:53 PM 62.1 °F 48.9 °F 62% 29.99 in 10.0 mi East 8.1 mph - N/A   Clear
10:53 PM 63.0 °F 50.0 °F 63% 29.98 in 10.0 mi ESE 5.8 mph - N/A   Clear
11:53 PM 57.9 °F 51.1 °F 78% 29.97 in 10.0 mi SSE 4.6 mph - N/A   Clear